| time (UTC) | temp C | wind direction | speed KPH | gust KPH | rain 1hr cm | rain 24hr cm | rain mn cm | humidity % | barometer mb |
| 20260504235043 | 26 | 252 | 12.9 | 24.1 | 0.00 | 0.00 | 0.00 | 18 | 1012.6 |
| 20260504234542 | 26 | 251 | 12.9 | 22.5 | 0.00 | 0.00 | 0.00 | 18 | 1012.5 |
| 20260504234044 | 26 | 281 | 12.9 | 25.7 | 0.00 | 0.00 | 0.00 | 18 | 1012.5 |
| 20260504233541 | 26 | 316 | 12.9 | 30.6 | 0.00 | 0.00 | 0.00 | 18 | 1012.6 |
| 20260504233041 | 26 | 246 | 14.5 | 30.6 | 0.00 | 0.00 | 0.00 | 18 | 1012.6 |
| 20260504232541 | 26 | 262 | 9.7 | 22.5 | 0.00 | 0.00 | 0.00 | 18 | 1012.4 |
| 20260504232041 | 26 | 312 | 12.9 | 25.7 | 0.00 | 0.00 | 0.00 | 17 | 1012.5 |
| 20260504231541 | 26 | 297 | 12.9 | 25.7 | 0.00 | 0.00 | 0.00 | 18 | 1012.5 |
| 20260504231041 | 26 | 292 | 9.7 | 25.7 | 0.00 | 0.00 | 0.00 | 18 | 1012.4 |
| 20260504230540 | 26 | 281 | 12.9 | 25.7 | 0.00 | 0.00 | 0.00 | 17 | 1012.4 |
| 20260504230040 | 26 | 286 | 12.9 | 29.0 | 0.00 | 0.00 | 0.00 | 17 | 1012.4 |
| 20260504225539 | 27 | 204 | 12.9 | 29.0 | 0.00 | 0.00 | 0.00 | 17 | 1012.3 |
| 20260504225040 | 27 | 331 | 12.9 | 25.7 | 0.00 | 0.00 | 0.00 | 17 | 1012.4 |
| 20260504224538 | 27 | 286 | 12.9 | 24.1 | 0.00 | 0.00 | 0.00 | 17 | 1012.5 |
| 20260504224041 | 27 | 290 | 11.3 | 22.5 | 0.00 | 0.00 | 0.00 | 16 | 1012.5 |
| 20260504223537 | 27 | 290 | 8.0 | 22.5 | 0.00 | 0.00 | 0.00 | 17 | 1012.5 |
| 20260504223036 | 27 | 261 | 12.9 | 22.5 | 0.00 | 0.00 | 0.00 | 17 | 1012.6 |
| 20260504222534 | 27 | 243 | 9.7 | 32.2 | 0.00 | 0.00 | 0.00 | 16 | 1012.7 |
| 20260504222034 | 26 | 286 | 17.7 | 32.2 | 0.00 | 0.00 | 0.00 | 16 | 1012.8 |
| 20260504221532 | 27 | 300 | 17.7 | 32.2 | 0.00 | 0.00 | 0.00 | 15 | 1012.9 |
| 20260504221032 | 26 | 242 | 17.7 | 24.1 | 0.00 | 0.00 | 0.00 | 16 | 1013.0 |
| 20260504220530 | 26 | 281 | 12.9 | 25.7 | 0.00 | 0.00 | 0.00 | 16 | 1012.9 |
| 20260504220043 | 26 | 247 | 12.9 | 24.1 | 0.00 | 0.00 | 0.00 | 15 | 1013.1 |
| 20260504215529 | 26 | 252 | 11.3 | 24.1 | 0.00 | 0.00 | 0.00 | 16 | 1013.2 |
| 20260504215029 | 26 | 259 | 14.5 | 24.1 | 0.00 | 0.00 | 0.00 | 16 | 1013.2 |
| 20260504214533 | 26 | 281 | 12.9 | 32.2 | 0.00 | 0.00 | 0.00 | 17 | 1013.3 |
| 20260504214030 | 26 | 250 | 12.9 | 33.8 | 0.00 | 0.00 | 0.00 | 17 | 1013.2 |
| 20260504213527 | 26 | 244 | 20.9 | 33.8 | 0.00 | 0.00 | 0.00 | 17 | 1013.3 |
| 20260504213026 | 26 | 203 | 11.3 | 29.0 | 0.00 | 0.00 | 0.00 | 18 | 1013.3 |
| 20260504212526 | 26 | 296 | 14.5 | 32.2 | 0.00 | 0.00 | 0.00 | 18 | 1013.5 |
| 20260504212026 | 26 | 257 | 14.5 | 32.2 | 0.00 | 0.00 | 0.00 | 18 | 1013.5 |
| 20260504211533 | 26 | 300 | 11.3 | 25.7 | 0.00 | 0.00 | 0.00 | 17 | 1013.6 |
| 20260504211024 | 26 | 315 | 12.9 | 25.7 | 0.00 | 0.00 | 0.00 | 18 | 1013.7 |
| 20260504210523 | 26 | 259 | 11.3 | 25.7 | 0.00 | 0.00 | 0.00 | 17 | 1013.7 |
| 20260504210022 | 26 | 240 | 12.9 | 24.1 | 0.00 | 0.00 | 0.00 | 18 | 1013.7 |
| 20260504205522 | 26 | 242 | 14.5 | 24.1 | 0.00 | 0.00 | 0.00 | 19 | 1013.9 |
| 20260504205020 | 26 | 270 | 8.0 | 30.6 | 0.00 | 0.00 | 0.00 | 19 | 1013.9 |
| 20260504204534 | 26 | 243 | 16.1 | 30.6 | 0.00 | 0.00 | 0.00 | 19 | 1013.9 |
| 20260504204019 | 26 | 256 | 11.3 | 29.0 | 0.00 | 0.00 | 0.00 | 19 | 1014.0 |
| 20260504203519 | 26 | 205 | 12.9 | 25.7 | 0.00 | 0.00 | 0.00 | 20 | 1014.1 |
| 20260504203018 | 26 | 201 | 14.5 | 25.7 | 0.00 | 0.00 | 0.00 | 20 | 1014.1 |
| 20260504202517 | 26 | 223 | 9.7 | 20.9 | 0.00 | 0.00 | 0.00 | 21 | 1014.2 |
| 20260504202015 | 25 | 205 | 12.9 | 22.5 | 0.00 | 0.00 | 0.00 | 21 | 1014.1 |
| 20260504201514 | 25 | 240 | 12.9 | 20.9 | 0.00 | 0.00 | 0.00 | 21 | 1014.3 |
| 20260504201013 | 25 | 233 | 9.7 | 20.9 | 0.00 | 0.00 | 0.00 | 20 | 1014.3 |
| 20260504200513 | 25 | 193 | 6.4 | 16.1 | 0.00 | 0.00 | 0.00 | 21 | 1014.4 |
| 20260504200011 | 24 | 199 | 8.0 | 17.7 | 0.00 | 0.00 | 0.00 | 19 | 1014.6 |
| 20260504195511 | 24 | 276 | 11.3 | 17.7 | 0.00 | 0.00 | 0.00 | 21 | 1014.7 |
| 20260504195010 | 24 | 223 | 8.0 | 19.3 | 0.00 | 0.00 | 0.00 | 21 | 1014.9 |
| 20260504194509 | 24 | 238 | 11.3 | 25.7 | 0.00 | 0.00 | 0.00 | 21 | 1014.9 |
| 20260504194011 | 23 | 248 | 14.5 | 25.7 | 0.00 | 0.00 | 0.00 | 20 | 1015.0 |
| 20260504193509 | 23 | 250 | 12.9 | 24.1 | 0.00 | 0.00 | 0.00 | 21 | 1015.0 |
| 20260504193005 | 23 | 265 | 12.9 | 20.9 | 0.00 | 0.00 | 0.00 | 22 | 1015.0 |
| 20260504192504 | 23 | 220 | 9.7 | 16.1 | 0.00 | 0.00 | 0.00 | 25 | 1015.0 |
| 20260504192006 | 23 | 254 | 8.0 | 20.9 | 0.00 | 0.00 | 0.00 | 24 | 1014.9 |
| 20260504191505 | 23 | 186 | 11.3 | 20.9 | 0.00 | 0.00 | 0.00 | 25 | 1015.0 |
| 20260504191005 | 23 | 198 | 8.0 | 16.1 | 0.00 | 0.00 | 0.00 | 24 | 1015.1 |
| 20260504190503 | 23 | 328 | 4.8 | 14.5 | 0.00 | 0.00 | 0.00 | 26 | 1015.2 |
| 20260504190002 | 22 | 281 | 6.4 | 16.1 | 0.00 | 0.00 | 0.00 | 25 | 1015.2 |
| 20260504185601 | 22 | 222 | 9.7 | 16.1 | 0.00 | 0.00 | 0.00 | 27 | 1015.3 |
| 20260504185058 | 22 | 225 | 6.4 | 14.5 | 0.00 | 0.00 | 0.00 | 28 | 1015.5 |
| 20260504184557 | 22 | 241 | 8.0 | 16.1 | 0.00 | 0.00 | 0.00 | 28 | 1015.4 |
| 20260504184059 | 21 | 272 | 8.0 | 16.1 | 0.00 | 0.00 | 0.00 | 28 | 1015.6 |
| 20260504183555 | 21 | 234 | 9.7 | 17.7 | 0.00 | 0.00 | 0.00 | 29 | 1015.5 |
| 20260504183100 | 21 | 222 | 8.0 | 16.1 | 0.00 | 0.00 | 0.00 | 29 | 1015.6 |
| 20260504182553 | 21 | 220 | 9.7 | 20.9 | 0.00 | 0.00 | 0.00 | 29 | 1015.6 |
| 20260504182053 | 21 | 185 | 9.7 | 20.9 | 0.00 | 0.00 | 0.00 | 29 | 1015.7 |
| 20260504181552 | 21 | 259 | 12.9 | 20.9 | 0.00 | 0.00 | 0.00 | 30 | 1015.7 |
| 20260504181052 | 21 | 244 | 11.3 | 20.9 | 0.00 | 0.00 | 0.00 | 31 | 1015.7 |
| 20260504180552 | 21 | 292 | 11.3 | 22.5 | 0.00 | 0.00 | 0.00 | 31 | 1015.8 |
| 20260504180130 | 21 | 241 | 14.5 | 22.5 | 0.00 | 0.00 | 0.00 | 31 | 1015.9 |
| 20260504175551 | 21 | 250 | 11.3 | 19.3 | 0.00 | 0.00 | 0.00 | 32 | 1016.0 |
| 20260504175051 | 21 | 259 | 11.3 | 17.7 | 0.00 | 0.00 | 0.00 | 32 | 1016.2 |
| 20260504174548 | 21 | 252 | 6.4 | 17.7 | 0.00 | 0.00 | 0.00 | 34 | 1016.3 |
| 20260504174048 | 21 | 251 | 9.7 | 16.1 | 0.00 | 0.00 | 0.00 | 33 | 1016.4 |
| 20260504173546 | 21 | 270 | 4.8 | 17.7 | 0.00 | 0.00 | 0.00 | 33 | 1016.4 |
| 20260504173047 | 20 | 240 | 9.7 | 17.7 | 0.00 | 0.00 | 0.00 | 33 | 1016.3 |
| 20260504172546 | 20 | 206 | 1.6 | 16.1 | 0.00 | 0.00 | 0.00 | 34 | 1016.4 |
| 20260504172045 | 20 | 263 | 9.7 | 16.1 | 0.00 | 0.00 | 0.00 | 33 | 1016.4 |
| 20260504171549 | 20 | 210 | 3.2 | 9.7 | 0.00 | 0.00 | 0.00 | 34 | 1016.5 |
| 20260504171045 | 20 | 123 | 1.6 | 14.5 | 0.00 | 0.00 | 0.00 | 34 | 1016.5 |
| 20260504170543 | 20 | 281 | 8.0 | 14.5 | 0.00 | 0.00 | 0.00 | 34 | 1016.5 |
| 20260504151023 | 17 | 159 | 0.0 | 3.2 | 0.00 | 0.00 | 0.00 | 45 | 1016.4 |
| 20260504150523 | 17 | 159 | 0.0 | 3.2 | 0.00 | 0.00 | 0.00 | 42 | 1016.5 |
| 20260504141017 | 17 | 251 | 4.8 | 11.3 | 0.00 | 0.00 | 0.00 | 38 | 1016.5 |
| 20260504140516 | 17 | 296 | 4.8 | 11.3 | 0.00 | 0.00 | 0.00 | 38 | 1016.4 |
| 20260504130531 | 18 | 250 | 3.2 | 9.7 | 0.00 | 0.00 | 0.00 | 34 | 1016.2 |
| 20260504110516 | 17 | 276 | 3.2 | 8.0 | 0.00 | 0.00 | 0.00 | 40 | 1014.3 |
| 20260504100508 | 15 | 207 | 0.0 | 3.2 | 0.00 | 0.00 | 0.00 | 55 | 1014.4 |
| 20260504082001 | 16 | 207 | 0.0 | 0.0 | 0.00 | 0.00 | 0.00 | 55 | 1014.4 |
| 20260504081601 | 16 | 207 | 0.0 | 3.2 | 0.00 | 0.00 | 0.00 | 56 | 1014.4 |
| 20260504081100 | 16 | 207 | 0.0 | 3.2 | 0.00 | 0.00 | 0.00 | 58 | 1014.6 |
| 20260504080559 | 16 | 207 | 0.0 | 1.6 | 0.00 | 0.00 | 0.00 | 56 | 1014.6 |
| 20260504050543 | 17 | 126 | 0.0 | 1.6 | 0.00 | 0.00 | 0.00 | 50 | 1015.4 |
| 20260504045542 | 17 | 126 | 0.0 | 1.6 | 0.00 | 0.00 | 0.00 | 51 | 1015.3 |
| 20260504045042 | 17 | 126 | 0.0 | 1.6 | 0.00 | 0.00 | 0.00 | 50 | 1015.4 |
| 20260504044542 | 17 | 126 | 0.0 | 1.6 | 0.00 | 0.00 | 0.00 | 49 | 1015.4 |
| 20260504044043 | 17 | 126 | 0.0 | 1.6 | 0.00 | 0.00 | 0.00 | 50 | 1015.3 |
| 20260504043542 | 18 | 126 | 0.0 | 1.6 | 0.00 | 0.00 | 0.00 | 51 | 1015.2 |
| 20260504043049 | 17 | 126 | 0.0 | 6.4 | 0.00 | 0.00 | 0.00 | 51 | 1015.2 |
| 20260504042540 | 17 | 126 | 0.0 | 6.4 | 0.00 | 0.00 | 0.00 | 53 | 1015.3 |
| 20260504042044 | 17 | 126 | 1.6 | 3.2 | 0.00 | 0.00 | 0.00 | 53 | 1015.2 |
| 20260504041541 | 17 | 126 | 0.0 | 3.2 | 0.00 | 0.00 | 0.00 | 52 | 1015.2 |
| 20260504041041 | 17 | 126 | 0.0 | 6.4 | 0.00 | 0.00 | 0.00 | 52 | 1015.2 |
| 20260504040540 | 17 | 126 | 1.6 | 4.8 | 0.00 | 0.00 | 0.00 | 54 | 1015.1 |
| 20260504040041 | 17 | 126 | 0.0 | 3.2 | 0.00 | 0.00 | 0.00 | 53 | 1015.1 |
| 20260504035540 | 17 | 126 | 0.0 | 3.2 | 0.00 | 0.00 | 0.00 | 53 | 1015.2 |
| 20260504035044 | 17 | 126 | 0.0 | 3.2 | 0.00 | 0.00 | 0.00 | 53 | 1015.1 |
| 20260504034547 | 18 | 126 | 1.6 | 4.8 | 0.00 | 0.00 | 0.00 | 52 | 1015.1 |
| 20260504034039 | 18 | 126 | 1.6 | 6.4 | 0.00 | 0.00 | 0.00 | 51 | 1015.2 |
| 20260504033539 | 18 | 126 | 0.0 | 1.6 | 0.00 | 0.00 | 0.00 | 52 | 1015.2 |
| 20260504033041 | 18 | 126 | 0.0 | 3.2 | 0.00 | 0.00 | 0.00 | 51 | 1015.2 |
| 20260504032539 | 18 | 126 | 0.0 | 3.2 | 0.00 | 0.00 | 0.00 | 49 | 1015.1 |
| 20260504032043 | 18 | 126 | 0.0 | 1.6 | 0.00 | 0.00 | 0.00 | 49 | 1015.1 |
| 20260504031539 | 18 | 126 | 0.0 | 3.2 | 0.00 | 0.00 | 0.00 | 49 | 1015.1 |
| 20260504031039 | 18 | 126 | 0.0 | 6.4 | 0.00 | 0.00 | 0.00 | 49 | 1015.0 |
| 20260504030538 | 19 | 126 | 0.0 | 6.4 | 0.00 | 0.00 | 0.00 | 48 | 1015.0 |
| 20260504030045 | 19 | 126 | 1.6 | 3.2 | 0.00 | 0.00 | 0.00 | 48 | 1015.1 |
| 20260504025538 | 19 | 126 | 0.0 | 3.2 | 0.00 | 0.00 | 0.00 | 47 | 1015.0 |
| 20260504025038 | 19 | 126 | 0.0 | 6.4 | 0.00 | 0.00 | 0.00 | 47 | 1015.1 |
| 20260504024537 | 20 | 126 | 1.6 | 6.4 | 0.00 | 0.00 | 0.00 | 47 | 1015.1 |
| 20260504024038 | 20 | 135 | 1.6 | 6.4 | 0.00 | 0.00 | 0.00 | 46 | 1015.0 |
| 20260504023537 | 20 | 135 | 1.6 | 6.4 | 0.00 | 0.00 | 0.00 | 44 | 1015.1 |
| 20260504023038 | 20 | 135 | 0.0 | 8.0 | 0.00 | 0.00 | 0.00 | 43 | 1015.0 |
| 20260504022538 | 21 | 135 | 0.0 | 8.0 | 0.00 | 0.00 | 0.00 | 43 | 1015.0 |
| 20260504022038 | 21 | 137 | 1.6 | 8.0 | 0.00 | 0.00 | 0.00 | 40 | 1014.9 |
| 20260504021537 | 22 | 147 | 1.6 | 8.0 | 0.00 | 0.00 | 0.00 | 39 | 1014.9 |
| 20260504021037 | 22 | 141 | 4.8 | 8.0 | 0.00 | 0.00 | 0.00 | 39 | 1014.8 |
| 20260504020537 | 22 | 155 | 1.6 | 8.0 | 0.00 | 0.00 | 0.00 | 38 | 1014.9 |
| 20260504020043 | 22 | 153 | 4.8 | 8.0 | 0.00 | 0.00 | 0.00 | 38 | 1014.9 |
| 20260504015536 | 22 | 159 | 3.2 | 8.0 | 0.00 | 0.00 | 0.00 | 38 | 1014.8 |
| 20260504015037 | 22 | 145 | 3.2 | 9.7 | 0.00 | 0.00 | 0.00 | 37 | 1014.8 |
| 20260504014543 | 22 | 159 | 1.6 | 9.7 | 0.00 | 0.00 | 0.00 | 38 | 1014.7 |
| 20260504014036 | 22 | 167 | 4.8 | 9.7 | 0.00 | 0.00 | 0.00 | 38 | 1014.8 |
| 20260504013536 | 22 | 161 | 1.6 | 6.4 | 0.00 | 0.00 | 0.00 | 37 | 1014.7 |
| 20260504013037 | 22 | 161 | 0.0 | 8.0 | 0.00 | 0.00 | 0.00 | 37 | 1014.7 |
| 20260504012536 | 23 | 155 | 3.2 | 8.0 | 0.00 | 0.00 | 0.00 | 36 | 1014.8 |
| 20260504012041 | 23 | 160 | 1.6 | 9.7 | 0.00 | 0.00 | 0.00 | 36 | 1014.7 |
| 20260504011536 | 23 | 168 | 6.4 | 9.7 | 0.00 | 0.00 | 0.00 | 36 | 1014.7 |
| 20260504011034 | 23 | 159 | 3.2 | 9.7 | 0.00 | 0.00 | 0.00 | 36 | 1014.7 |
| 20260504010534 | 23 | 159 | 6.4 | 9.7 | 0.00 | 0.00 | 0.00 | 36 | 1014.8 |
| 20260504010033 | 23 | 147 | 0.0 | 6.4 | 0.00 | 0.00 | 0.00 | 36 | 1014.8 |
| 20260504005532 | 23 | 144 | 0.0 | 9.7 | 0.00 | 0.00 | 0.00 | 36 | 1015.0 |
| 20260504005034 | 23 | 137 | 1.6 | 9.7 | 0.00 | 0.00 | 0.00 | 35 | 1014.9 |
| 20260504004534 | 23 | 152 | 1.6 | 8.0 | 0.00 | 0.00 | 0.00 | 36 | 1014.9 |
| 20260504004031 | 23 | 158 | 3.2 | 8.0 | 0.00 | 0.00 | 0.00 | 35 | 1015.0 |
| 20260504003531 | 23 | 165 | 3.2 | 12.9 | 0.00 | 0.00 | 0.00 | 34 | 1015.1 |
| 20260504003030 | 23 | 133 | 6.4 | 12.9 | 0.00 | 0.00 | 0.00 | 35 | 1015.1 |
| 20260504002530 | 23 | 165 | 4.8 | 12.9 | 0.00 | 0.00 | 0.00 | 35 | 1015.1 |
| 20260504002030 | 23 | 181 | 6.4 | 12.9 | 0.00 | 0.00 | 0.00 | 35 | 1015.2 |
| 20260504001532 | 23 | 155 | 4.8 | 16.1 | 0.00 | 0.00 | 0.00 | 35 | 1015.1 |
| 20260504001033 | 23 | 177 | 8.0 | 17.7 | 0.00 | 0.00 | 0.00 | 35 | 1015.2 |
| 20260504000529 | 23 | 142 | 9.7 | 17.7 | 0.00 | 0.00 | 0.00 | 34 | 1015.1 |
| 20260504000028 | 23 | 157 | 6.4 | 12.9 | 0.00 | 0.00 | 0.00 | 35 | 1015.2 |
| 20260503235528 | 23 | 180 | 6.4 | 12.9 | 0.00 | 0.00 | 0.00 | 34 | 1015.2 |